Demopolis Municipal Airport, AL

12:43 AM CST on November 20, 2019 (GMT -0600)
Demopolis Municipal Airport

Weather History for KDYA - September, 2019

Change the Weather History Date:

Tuesday, September 24, 2019

  Actual Average (KNMM) Record (KNMM)
Temperature  
Mean Temperature 78 °F -  
Max Temperature 89 °F 80 °F 99 °F (2016)
Min Temperature 68 °F 60 °F 46 °F (1999)
Cooling Degree Days 13    
Growing Degree Days 28 (Base 50)    
Moisture  
Dew Point 70 °F    
Average Humidity 76    
Maximum Humidity 100    
Minimum Humidity 54    
Precipitation  
Precipitation 0.00 in - - ()
Sea Level Pressure  
Sea Level Pressure 29.94 in    
Wind  
Wind Speed 1 mph ()    
Max Wind Speed 7 mph    
Max Gust Speed -    
Visibility 10.0 miles    
Events Rain    
Averages and records for this station are not official NWS values.
T = Trace of Precipitation, MM = Missing Value Source: Averaged Metar Reports

Daily Weather History Graph

Daily Weather History Graph

Search for Another Location

Airport or City:

Astronomy

Sep. 24, 2019 Rise Set
Actual Time 6:41 AM CDT 6:46 PM CDT
Civil Twilight 6:16 AM CDT 7:10 PM CDT
Nautical Twilight 5:48 AM CDT 7:39 PM CDT
Astronomical Twilight 5:19 AM CDT 8:07 PM CDT
Moon 1:46 AM CDT (9/24) 4:12 PM CDT (9/24)
Length of Visible Light 12h 53m
Length of Day
12h 04m
Waning Crescent, 23% of the Moon is Illuminated
Sep 24
Waning Crescent
Sep 28
New
Oct 5
First Quarter
Oct 13
Full
Oct 21
Last Quarter

Hourly Weather History & Observations

Time (CDT) Temp. Heat Index Dew Point Humidity Pressure Visibility Wind Dir Wind Speed Gust Speed Precip Events Conditions
12:15 AM 71.1 °F - 67.3 °F 88% 29.99 in 10.0 mi Calm Calm - N/A   Clear
12:35 AM 70.9 °F - 67.5 °F 89% 29.98 in 10.0 mi Calm Calm - N/A   Clear
12:55 AM 70.7 °F - 67.3 °F 89% 29.98 in 10.0 mi Calm Calm - N/A   Clear
1:15 AM 70.0 °F - 66.9 °F 90% 29.98 in 10.0 mi Calm Calm - N/A   Clear
1:35 AM 70.5 °F - 67.5 °F 90% 29.97 in 10.0 mi Calm Calm - N/A   Clear
1:55 AM 70.0 °F - 67.5 °F 92% 29.97 in 10.0 mi Calm Calm - N/A   Clear
2:15 AM 70.2 °F - 67.8 °F 92% 29.97 in 10.0 mi Calm Calm - N/A   Clear
2:55 AM 69.1 °F - 67.1 °F 93% 29.96 in 10.0 mi Calm Calm - N/A   Clear
3:15 AM 69.3 °F - 67.3 °F 93% 29.96 in 10.0 mi Calm Calm - N/A   Clear
3:35 AM 69.1 °F - 67.1 °F 93% 29.96 in 10.0 mi Calm Calm - N/A   Clear
3:55 AM 68.5 °F - 66.7 °F 94% 29.97 in 10.0 mi Calm Calm - N/A   Clear
6:15 AM 68.2 °F - 68.0 °F 99% 29.99 in 10.0 mi Calm Calm - N/A   Mostly Cloudy
6:35 AM 68.9 °F - 68.4 °F 98% 29.99 in 10.0 mi Calm Calm - N/A   Overcast
6:55 AM 69.4 °F - 69.4 °F 100% 29.99 in 10.0 mi Calm Calm - N/A   Overcast
7:15 AM 70.0 °F - 70.0 °F 100% 29.99 in 10.0 mi Calm Calm - N/A   Overcast
7:35 AM 71.6 °F - 71.1 °F 98% 30.00 in 10.0 mi Calm Calm - N/A   Overcast
7:55 AM 72.5 °F - 71.1 °F 95% 30.00 in 10.0 mi Calm Calm - N/A   Mostly Cloudy
8:15 AM 75.4 °F - 71.4 °F 87% 30.00 in 10.0 mi Calm Calm - N/A   Mostly Cloudy
8:35 AM 77.4 °F - 71.4 °F 82% 29.99 in 10.0 mi Calm Calm - N/A   Scattered Clouds
8:55 AM 79.3 °F - 70.9 °F 75% 29.99 in 10.0 mi WNW 3.5 mph - N/A   Scattered Clouds
9:15 AM 81.1 °F 85.0 °F 70.9 °F 71% 29.99 in 10.0 mi Calm Calm - N/A   Scattered Clouds
9:35 AM 81.5 °F 85.5 °F 71.1 °F 70% 30.00 in 10.0 mi Calm Calm - N/A   Scattered Clouds
9:55 AM 83.3 °F 87.9 °F 71.1 °F 66% 29.99 in 10.0 mi Calm Calm - N/A   Scattered Clouds
10:15 AM 84.2 °F 89.3 °F 71.1 °F 65% 30.00 in 10.0 mi Calm Calm - N/A   Clear
10:35 AM 85.3 °F 90.4 °F 70.9 °F 62% 29.99 in 10.0 mi Calm Calm - N/A   Clear
10:55 AM 86.2 °F 91.4 °F 70.9 °F 60% 29.99 in 10.0 mi Calm Calm - N/A   Clear
11:15 AM 86.7 °F 92.1 °F 70.7 °F 59% 29.99 in 10.0 mi Calm Calm - N/A   Clear
11:35 AM 88.2 °F 93.3 °F 70.3 °F 55% 29.98 in 10.0 mi Calm Calm - N/A   Scattered Clouds
11:55 AM 86.5 °F 91.8 °F 70.7 °F 59% 29.97 in 10.0 mi NW 3.5 mph - N/A   Mostly Cloudy
12:15 PM 86.5 °F 91.8 °F 70.5 °F 59% 29.97 in 10.0 mi WNW 4.6 mph - N/A Rain Rain
12:35 PM 85.3 °F 89.8 °F 70.2 °F 60% 29.96 in 10.0 mi NW 5.8 mph - N/A   Overcast
12:55 PM 85.3 °F 90.1 °F 70.3 °F 61% 29.95 in 10.0 mi NNW 3.5 mph - N/A   Scattered Clouds
1:15 PM 86.2 °F 91.1 °F 70.5 °F 59% 29.95 in 10.0 mi NW 3.5 mph - N/A   Mostly Cloudy
1:55 PM 87.4 °F 92.3 °F 70.2 °F 56% 29.93 in 10.0 mi Calm Calm - N/A   Mostly Cloudy
2:15 PM 88.3 °F 93.6 °F 70.2 °F 55% 29.92 in 10.0 mi NNE 4.6 mph - N/A   Scattered Clouds
2:35 PM 87.8 °F 92.6 °F 69.6 °F 55% 29.91 in 10.0 mi North 3.5 mph - N/A   Scattered Clouds
2:55 PM 88.0 °F 92.5 °F 69.6 °F 54% 29.91 in 10.0 mi Calm Calm - N/A   Scattered Clouds
3:15 PM 88.2 °F 92.9 °F 69.8 °F 54% 29.90 in 10.0 mi West 6.9 mph - N/A   Scattered Clouds
3:35 PM 88.2 °F 92.9 °F 69.6 °F 54% 29.90 in 10.0 mi West 3.5 mph - N/A   Scattered Clouds
3:55 PM 87.1 °F 90.9 °F 68.5 °F 54% 29.89 in 10.0 mi West 5.8 mph - N/A   Mostly Cloudy
4:15 PM 83.7 °F 88.9 °F 71.6 °F 67% 29.89 in 7.0 mi West 6.9 mph - N/A Rain Rain
4:35 PM 86.5 °F 92.1 °F 71.2 °F 60% 29.89 in 10.0 mi Calm Calm - N/A   Mostly Cloudy
5:15 PM 88.0 °F 92.9 °F 70.2 °F 55% 29.88 in 10.0 mi WNW 3.5 mph - N/A   Scattered Clouds
5:35 PM 87.8 °F 93.0 °F 70.5 °F 56% 29.88 in 10.0 mi West 3.5 mph - N/A   Scattered Clouds
5:55 PM 88.2 °F 93.3 °F 70.0 °F 55% 29.87 in 10.0 mi WNW 3.5 mph - N/A   Scattered Clouds
6:15 PM 87.3 °F 92.4 °F 70.2 °F 57% 29.88 in 10.0 mi Calm Calm - N/A   Clear
6:35 PM 86.2 °F 91.4 °F 70.7 °F 60% 29.88 in 10.0 mi WSW 3.5 mph - N/A   Clear
6:55 PM 83.3 °F 88.4 °F 71.8 °F 68% 29.88 in 10.0 mi Calm Calm - N/A   Clear
7:15 PM 80.6 °F 84.6 °F 71.6 °F 74% 29.88 in 10.0 mi Calm Calm - N/A   Clear
7:35 PM 79.3 °F - 71.8 °F 78% 29.88 in 10.0 mi Calm Calm - N/A   Clear
7:55 PM 78.3 °F - 71.8 °F 80% 29.88 in 10.0 mi Calm Calm - N/A   Clear
8:15 PM 77.4 °F - 71.4 °F 82% 29.88 in 10.0 mi Calm Calm - N/A   Clear
8:35 PM 76.6 °F - 71.6 °F 84% 29.89 in 10.0 mi Calm Calm - N/A   Clear
8:55 PM 75.9 °F - 71.2 °F 85% 29.89 in 10.0 mi Calm Calm - N/A   Clear
9:15 PM 75.2 °F - 71.1 °F 87% 29.89 in 10.0 mi Calm Calm - N/A   Clear
9:35 PM 74.7 °F - 71.1 °F 88% 29.89 in 10.0 mi Calm Calm - N/A   Clear
9:55 PM 74.1 °F - 70.9 °F 90% 29.89 in 10.0 mi Calm Calm - N/A   Clear
10:15 PM 73.9 °F - 71.1 °F 91% 29.89 in 10.0 mi Calm Calm - N/A   Clear
10:35 PM 73.6 °F - 71.1 °F 92% 29.89 in 10.0 mi Calm Calm - N/A   Clear
10:55 PM 73.4 °F - 71.1 °F 92% 29.89 in 10.0 mi Calm Calm - N/A   Clear
11:15 PM 73.0 °F - 70.9 °F 93% 29.89 in 10.0 mi Calm Calm - N/A   Clear
11:35 PM 72.5 °F - 70.7 °F 94% 29.88 in 10.0 mi Calm Calm - N/A   Clear
11:55 PM 72.0 °F - 70.3 °F 95% 29.88 in 10.0 mi Calm Calm - N/A   Clear